Location: Archemont
(49.1579°N, 1.7598°E)
Time: 10:40:17
(UTC+00:00)

deb Explorer IX - Pass Details

Date: 17 April 2024
Orbit: 513 x 891 km, 38.7° (Epoch: 23 May)

Event Time Altitude Azimuth Distance (km) Brightness Sun altitude
Rises 15:07:42 0° 257° (WSW) 3,520 ? 34.4°
Reaches altitude 10° 15:10:39 10° 247° (WSW) 2,570 ? 33.9°
Maximum altitude 15:15:49 29° 190° (S) 1,561 ? 33.2°
Drops below altitude 10° 15:20:47 10° 132° (SE) 2,444 ? 32.4°
Sets 15:23:30 0° 122° (ESE) 3,320 ? 32.0°
